Powrót do katalogu

INTELSAT 4-F3

AktywnyŁącznośćGEO
NORAD 5709·PAYLOAD· XX

Wystrzelony Dec 20, 1971 z Cape Canaveral Space Force Station

Loading…

TLE

ŚwieżeSource: Space-Track

Epoka: Sep 14, 2026, 13:25 UTC

1  5709U 71116A   26257.55963082 -.00000169  00000-0  00000+0 0  9993
2  5709   6.1862 290.0909 0009579 127.1124  59.5530  0.99618957119768

Śledź INTELSAT 4-F3 w czasie rzeczywistym z AllMySat

Download on the App Store